Punta Gorda, FL

10:55 AM EST on November 12, 2019 (GMT -0500)
Charlotte County

Weather History for KPGD - September, 2019

Change the Weather History Date:

Saturday, September 21, 2019

  Actual Average Record
Temperature  
Mean Temperature 80 °F -  
Max Temperature 90 °F 86 °F 93 °F (2008)
Min Temperature 69 °F 71 °F 69 °F (2006)
Cooling Degree Days 14    
Growing Degree Days 30 (Base 50)    
Moisture  
Dew Point 69 °F    
Average Humidity 76    
Maximum Humidity 100    
Minimum Humidity 50    
Precipitation  
Precipitation 0.00 in - - ()
Sea Level Pressure  
Sea Level Pressure 30.09 in    
Wind  
Wind Speed 11 mph (ENE)    
Max Wind Speed 21 mph    
Max Gust Speed 29 mph    
Visibility 10 miles    
Events      
Averages and records for this station are not official NWS values.
T = Trace of Precipitation, MM = Missing Value Source: NWS Daily Summary

Daily Weather History Graph

Daily Weather History Graph

Search for Another Location

Airport or City:

Astronomy

Sep. 21, 2019 Rise Set
Actual Time 7:15 AM EDT 7:25 PM EDT
Civil Twilight 6:52 AM EDT 7:48 PM EDT
Nautical Twilight 6:25 AM EDT 8:15 PM EDT
Astronomical Twilight 5:58 AM EDT 8:43 PM EDT
Moon No Moon Rise 1:46 PM EDT (9/21)
Length of Visible Light 12h 56m
Length of Day
12h 09m
Waning Gibbous, 55% of the Moon is Illuminated
Sep 21
Waning Gibbous
Sep 21
Last Quarter
Sep 28
New
Oct 5
First Quarter
Oct 13
Full

Hourly Weather History & Observations

Time (EDT) Temp. Heat Index Dew Point Humidity Pressure Visibility Wind Dir Wind Speed Gust Speed Precip Events Conditions
12:53 AM 72.0 °F - 70.0 °F 93% 30.10 in 10.0 mi ENE 8.1 mph - N/A   Clear
1:53 AM 71.1 °F - 70.0 °F 96% 30.10 in 10.0 mi NE 8.1 mph - N/A   Clear
2:53 AM 70.0 °F - 69.1 °F 97% 30.09 in 10.0 mi NE 8.1 mph - N/A   Clear
3:53 AM 70.0 °F - 68.0 °F 93% 30.08 in 10.0 mi ENE 9.2 mph - N/A   Clear
4:53 AM 69.1 °F - 69.1 °F 100% 30.08 in 10.0 mi NE 6.9 mph - N/A   Clear
5:53 AM 70.0 °F - 69.1 °F 97% 30.09 in 10.0 mi NE 9.2 mph - N/A   Clear
6:53 AM 70.0 °F - 69.1 °F 97% 30.11 in 10.0 mi NE 10.4 mph - N/A   Scattered Clouds
7:53 AM 71.1 °F - 68.0 °F 90% 30.12 in 10.0 mi NE 10.4 mph - N/A   Clear
8:53 AM 75.9 °F - 68.0 °F 76% 30.14 in 10.0 mi ENE 9.2 mph - N/A   Clear
9:53 AM 81.0 °F 84.1 °F 69.1 °F 67% 30.14 in 10.0 mi ENE 13.8 mph - N/A   Clear
10:53 AM 84.9 °F 88.8 °F 69.1 °F 59% 30.14 in 10.0 mi ENE 19.6 mph 28.8 mph N/A   Clear
11:53 AM 86.0 °F 90.1 °F 69.1 °F 57% 30.12 in 10.0 mi ENE 17.3 mph 25.3 mph N/A   Partly Cloudy
12:53 PM 87.1 °F 91.3 °F 69.1 °F 55% 30.10 in 10.0 mi East 17.3 mph - N/A   Scattered Clouds
1:53 PM 88.0 °F 91.4 °F 68.0 °F 51% 30.09 in 10.0 mi ENE 18.4 mph 27.6 mph N/A   Mostly Cloudy
2:53 PM 90.0 °F 94.5 °F 69.1 °F 50% 30.07 in 10.0 mi East 19.6 mph 28.8 mph N/A   Scattered Clouds
3:53 PM 90.0 °F 94.5 °F 69.1 °F 50% 30.05 in 10.0 mi East 17.3 mph 24.2 mph N/A   Scattered Clouds
4:53 PM 89.1 °F 93.7 °F 69.1 °F 52% 30.04 in 10.0 mi ENE 20.7 mph - N/A   Scattered Clouds
5:53 PM 86.0 °F 89.4 °F 68.0 °F 55% 30.05 in 10.0 mi East 15.0 mph 23.0 mph N/A   Scattered Clouds
6:53 PM 82.9 °F 86.5 °F 69.1 °F 63% 30.06 in 10.0 mi ENE 15.0 mph - N/A   Partly Cloudy
7:53 PM 80.1 °F 82.9 °F 69.1 °F 69% 30.08 in 10.0 mi East 13.8 mph - N/A   Clear
8:53 PM 78.1 °F - 71.1 °F 79% 30.09 in 10.0 mi ENE 9.2 mph - N/A   Clear
9:53 PM 75.9 °F - 72.0 °F 87% 30.10 in 10.0 mi ENE 9.2 mph - N/A   Clear
10:53 PM 75.0 °F - 72.0 °F 90% 30.10 in 10.0 mi ENE 10.4 mph - N/A   Clear
11:53 PM 73.9 °F - 72.0 °F 93% 30.10 in 10.0 mi ENE 9.2 mph - N/A   Clear